Temp_Advection
nan nan nan nan nan nan nan nan nan nan nan nan nan nan nan nan nan nan nan nan nan nan
nan 1 0 1 1 0 0 0 0 0 0 0 0 0 0 0 0 0 0 0 0 nan
nan 0 1 1 0 0 1 0 0 0 0 0 0 0 0 0 0 0 0 -0 0 nan
nan 0 1 0 0 0 1 1 0 0 0 0 0 1 0 0 0 0 0 -0 1 nan
nan 0 1 1 1 1 1 0 0 0 0 0 1 0 0 0 0 0 -0 0 0 nan
nan 0 0 1 0 0 0 0 0 0 0 0 0 1 1 0 -0 0 -0 0 -0 nan
nan 0 1 0 0 0 0 0 0 0 0 0 1 0 0 0 0 0 -0 -0 -0 nan
nan 0 0 0 0 -0 -0 0 0 0 0 0 0 -0 0 0 0 -0 -0 -0 -0 nan
nan 0 0 0 -0 -0 0 0 0 0 0 0 0 -0 -0 0 0 -0 -0 -0 -0 nan
nan 0 -0 -0 -0 -0 0 -0 -0 0 0 -0 -0 -0 -0 0 -0 0 -0 0 0 nan
nan -0 0 0 0 0 0 -0 0 0 0 -0 0 0 0 0 0 0 0 0 0 nan
nan -0 -0 -0 0 0 0 0 0 0 0 0 0 0 0 0 0 0 0 0 0 nan
nan -0 -0 -0 -0 0 -0 0 0 0 0 0 0 0 0 0 0 0 0 0 0 nan
nan nan nan nan nan nan nan nan nan nan nan nan nan nan nan nan nan nan nan nan nan nan
Wind_Speed
28 29 31 28 28 24 25 23 24 25 26 28 34 35 35 36 37 39 42 45 53 50
20 26 28 25 25 23 20 21 21 23 23 23 26 30 35 38 37 42 37 48 50 56
25 26 27 22 25 22 22 22 20 22 24 24 29 31 31 34 37 40 43 46 51 51
25 26 30 25 24 25 23 21 21 23 24 25 29 32 35 35 36 39 41 49 54 47
22 24 25 24 21 21 22 22 23 23 24 25 27 29 32 34 38 39 41 48 43 49
17 18 21 22 20 19 20 21 22 21 22 23 24 28 31 34 36 38 40 42 47 53
13 15 19 18 18 19 19 19 17 17 18 19 20 20 20 21 24 24 31 35 40 47
8 13 15 16 17 15 16 16 17 18 17 17 18 18 16 14 17 20 22 26 38 47
8 8 11 12 15 15 15 12 13 16 16 15 14 18 14 11 12 15 15 22 31 35
9 10 14 14 14 17 16 13 10 12 14 12 12 15 16 15 12 14 16 17 24 35
1 6 11 13 16 16 18 13 13 13 13 12 10 12 15 16 18 15 16 17 14 16
6 5 4 14 19 13 18 17 14 12 11 11 11 12 13 19 20 22 19 18 17 17
3 4 5 3 14 18 18 17 16 15 15 13 12 12 12 18 22 25 24 24 24 24
6 5 4 5 6 14 21 19 16 18 16 18 18 15 15 14 16 19 23 25 26 28
Wind_Direction
226 229 225 226 231 230 224 223 229 228 231 227 227 226 227 230 227 229 228 236 215 210
231 210 214 222 225 228 231 224 230 233 239 235 232 232 235 234 232 235 235 226 223 211
205 212 213 204 195 214 223 223 228 231 239 243 236 236 232 235 234 233 236 239 220 224
222 215 214 215 216 221 230 233 232 236 239 245 237 237 237 240 238 238 235 218 226 224
215 210 214 216 217 224 227 231 239 244 247 243 242 237 238 242 242 241 236 231 231 230
232 213 208 214 218 224 228 234 249 239 242 241 245 246 244 242 240 246 244 234 214 217
197 197 208 210 222 226 234 242 242 242 242 247 253 247 237 234 232 235 244 237 232 227
210 198 197 208 220 228 243 255 241 236 241 244 245 232 222 229 232 234 242 241 222 207
231 229 203 208 229 232 234 246 246 229 240 239 236 218 216 214 216 219 222 234 229 228
225 220 217 213 214 236 238 233 241 234 238 236 236 226 216 211 199 208 219 209 196 206
70 236 207 211 211 211 220 233 226 229 233 237 239 228 218 213 213 208 209 209 202 185
52 42 285 221 216 216 224 219 228 224 228 225 232 233 231 224 224 214 211 209 214 216
341 10 31 281 235 225 232 203 218 224 228 229 233 224 227 223 222 220 216 217 218 218
348 330 329 338 313 236 220 223 211 220 227 230 236 228 217 217 220 224 227 229 232 234
Height
1417 1421 1424 1428 1431 1435 1440 1444 1447 1450 1453 1456 1459 1461 1464 1467 1469 1472 1476 1477 1481 1486
1414 1417 1422 1425 1428 1431 1436 1440 1443 1446 1449 1452 1454 1456 1459 1460 1462 1464 1466 1469 1472 1478
1411 1416 1419 1422 1425 1428 1432 1435 1439 1442 1444 1447 1448 1450 1451 1453 1455 1457 1458 1460 1463 1469
1408 1411 1414 1418 1422 1425 1427 1431 1434 1437 1439 1440 1442 1443 1444 1446 1447 1449 1452 1449 1454 1459
1405 1407 1411 1415 1419 1422 1425 1428 1429 1431 1433 1434 1436 1437 1438 1439 1440 1440 1442 1443 1446 1452
1401 1403 1407 1412 1415 1418 1421 1423 1424 1425 1427 1429 1430 1430 1430 1431 1432 1432 1433 1434 1437 1442
1399 1401 1405 1409 1412 1415 1418 1419 1420 1421 1423 1425 1424 1424 1424 1425 1426 1427 1428 1432 1435 1438
1398 1399 1402 1406 1409 1412 1415 1415 1416 1417 1419 1420 1420 1420 1421 1422 1423 1424 1425 1428 1430 1430
1397 1398 1400 1403 1406 1409 1411 1412 1412 1413 1416 1417 1417 1418 1420 1420 1421 1422 1424 1425 1428 1431
1396 1397 1399 1400 1403 1406 1408 1408 1409 1410 1413 1414 1414 1416 1418 1420 1421 1423 1424 1426 1427 1430
1394 1395 1395 1396 1399 1400 1403 1405 1406 1408 1410 1411 1412 1414 1416 1418 1421 1423 1425 1427 1430 1434
1395 1393 1392 1393 1396 1397 1399 1401 1403 1406 1408 1410 1410 1412 1414 1416 1419 1421 1424 1427 1431 1435
1394 1393 1391 1390 1391 1392 1395 1396 1399 1403 1405 1407 1409 1410 1411 1413 1415 1418 1422 1425 1429 1433
1393 1393 1391 1388 1387 1387 1388 1393 1395 1399 1401 1404 1406 1408 1409 1411 1413 1415 1418 1421 1424 1427